Powrót do katalogu

SL-8 DEB

AktywnyUNKNOWN
NORAD 21722·DEBRIS·🇷🇺 Russia

Wystrzelony Feb 12, 1991 z Plesetsk Cosmodrome

Loading…

Następne Przeloty (najbliższe 24 godziny)

TLE

ŚwieżeSource: Space-Track

Epoka: Sep 14, 2026, 10:22 UTC

1 21722U 91009BY  26257.43244368 -.00000014  00000-0 -29865-4 0  9990
2 21722  74.0514 278.4438 0369993 162.0167 268.6279 11.77225004502449

Śledź SL-8 DEB w czasie rzeczywistym z AllMySat

Download on the App Store